EHI
0 0 0 0 0 0 0 0 0 0 0 0 0 0 0 0 1 2 2 1 1 2 2 3 3 3 3 3 3 1 0 0 0 0 0 0 0 0 0 0 0 0 0 0
0 0 0 0 0 0 0 0 0 0 0 0 0 0 0 0 0 1 1 0 0 1 1 2 3 3 3 3 3 2 1 1 0 0 0 0 0 0 0 0 0 0 0 0
0 0 0 0 0 0 0 0 0 0 0 0 0 0 0 0 0 0 0 0 0 0 0 1 1 2 3 3 3 3 3 2 1 0 0 0 0 0 0 0 0 0 0 0
0 0 0 0 0 0 0 0 0 0 0 0 0 0 0 0 0 0 0 0 0 0 0 0 0 1 1 2 3 3 3 3 2 1 0 0 0 0 0 0 0 0 0 0
0 0 0 0 0 0 0 0 0 0 0 0 0 0 0 0 1 1 1 0 0 0 0 0 0 0 0 1 2 3 3 3 3 2 1 0 0 0 0 0 0 0 0 0
0 0 0 0 0 0 0 0 0 0 0 0 0 0 0 0 1 1 1 0 0 0 0 0 0 0 0 0 1 1 2 3 3 3 2 1 0 0 0 0 0 0 0 0
0 0 0 0 0 0 0 0 0 0 0 0 0 0 0 0 0 0 0 0 0 0 0 0 0 0 0 0 0 0 1 2 3 3 3 2 1 0 0 0 0 0 0 0
0 0 0 0 0 0 0 0 0 0 0 0 0 0 0 0 0 0 0 0 0 0 0 0 0 0 0 0 0 0 0 1 2 3 3 3 1 0 0 0 0 0 0 0
0 0 0 0 0 0 0 0 0 0 0 0 0 0 0 0 0 0 0 0 0 0 0 0 0 0 0 0 0 0 0 0 1 1 2 3 2 1 0 0 0 0 0 0
0 0 0 0 0 0 0 0 0 0 0 0 0 0 0 0 0 0 0 0 0 0 0 0 0 0 0 0 0 0 0 0 0 0 1 2 3 2 1 0 0 0 0 0
0 0 0 0 0 0 0 0 0 0 0 0 0 0 0 0 0 0 0 0 0 0 0 0 0 0 0 0 0 0 0 0 0 0 0 1 3 2 1 0 0 0 0 0
0 0 0 0 0 0 0 0 0 0 0 0 0 0 0 0 0 0 0 0 0 0 0 0 0 0 0 0 0 0 0 0 0 0 0 1 2 2 1 0 0 0 0 0
0 0 0 0 0 0 0 0 0 0 0 0 0 0 0 0 0 0 0 0 0 0 0 0 0 0 0 0 0 0 0 0 0 0 0 0 1 2 1 0 0 0 0 0
0 0 0 0 0 0 0 0 0 0 1 1 0 0 0 0 0 0 0 0 0 0 0 0 0 0 0 0 0 0 0 0 0 0 0 0 1 2 2 1 0 0 0 0
0 0 0 0 0 0 0 0 0 1 1 0 0 0 0 0 0 0 0 0 0 0 0 0 0 0 0 0 0 0 0 0 0 0 0 0 1 2 2 1 0 0 0 0
0 0 0 0 0 0 0 0 0 0 0 0 0 0 0 0 0 0 0 0 0 0 0 0 0 0 0 0 0 0 0 0 0 0 0 0 0 1 1 0 0 0 0 0
0 0 0 0 0 0 0 0 0 0 0 0 0 0 0 0 0 0 0 0 0 0 0 0 0 0 0 0 0 0 0 0 0 0 0 0 0 0 0 0 0 0 0 0
0 0 0 0 0 0 0 0 0 0 0 0 0 0 0 0 0 0 0 0 0 0 0 0 0 0 0 0 0 0 0 0 0 0 0 0 0 0 0 0 0 0 0 0
0 0 0 0 0 0 0 0 0 0 0 0 0 0 0 0 0 0 0 0 0 0 0 0 0 0 0 0 0 0 0 0 0 0 0 0 0 0 0 0 0 0 0 0
0 0 0 0 0 0 0 0 0 0 0 0 0 0 0 0 0 0 0 0 0 0 0 0 0 0 0 0 0 0 0 0 0 0 0 0 0 0 0 0 0 0 0 0
0 0 0 0 0 0 0 0 0 0 0 0 0 0 0 0 0 0 0 0 0 0 0 0 0 0 0 0 0 0 0 0 0 0 0 0 0 0 0 0 0 0 0 0
0 0 0 0 0 0 0 0 0 0 0 0 0 0 0 0 0 0 0 0 0 0 0 0 0 0 0 0 0 0 0 0 0 0 0 0 0 0 0 0 0 0 0 0
0 0 0 0 0 0 0 0 0 0 0 0 0 0 0 0 0 0 0 0 0 0 0 0 0 0 0 0 0 0 0 0 0 0 0 0 0 0 0 0 0 0 0 0
0 0 0 0 0 0 0 0 0 0 0 0 0 0 0 0 0 0 0 0 0 0 0 0 0 0 0 0 0 0 0 0 0 0 0 0 0 0 0 0 0 0 0 0
0 0 0 0 0 0 0 0 0 0 0 0 0 0 0 0 0 0 0 0 0 0 0 0 0 0 0 0 0 0 0 0 0 0 0 0 0 0 0 0 0 0 0 0
0 0 0 0 0 0 0 0 0 0 0 0 0 0 0 0 0 0 0 0 0 0 0 0 0 0 0 0 0 0 0 0 0 0 0 0 0 0 0 0 0 0 0 0
0 0 0 0 0 0 0 0 0 0 0 0 0 0 0 0 0 0 0 0 0 0 0 0 0 0 0 0 0 0 0 0 0 0 0 0 0 0 0 0 0 0 0 0
Wind_Speed
5 5 4 5 6 6 6 7 7 6 6 6 6 5 3 4 5 5 5 6 7 7 7 6 6 6 6 6 5 6 6 6 6 5 5 5 5 4 4 4 4 3 3 3
3 4 4 5 6 7 7 6 5 4 5 5 4 3 3 4 5 5 5 7 7 7 7 7 7 7 6 6 6 6 6 6 6 5 5 5 5 4 4 4 3 3 3 3
3 4 3 5 6 6 5 5 7 7 7 3 3 5 6 5 5 6 6 6 7 7 8 8 8 8 8 7 6 6 6 6 6 6 6 5 5 5 4 4 3 4 3 3
1 1 5 7 4 3 4 3 3 4 4 5 5 5 5 5 5 5 5 5 6 6 6 6 6 6 6 6 6 6 6 6 6 6 6 5 5 5 4 3 4 3 3 3
2 3 6 6 3 2 3 2 1 2 3 2 1 1 1 1 4 5 5 5 5 6 6 6 6 6 6 6 7 7 7 7 7 7 7 6 6 5 4 4 3 3 3 4
3 3 6 6 5 3 3 3 2 2 3 2 2 2 4 3 1 3 3 3 4 4 4 5 5 6 7 7 7 7 8 7 7 7 8 8 7 5 4 4 4 4 3 3
4 4 7 6 4 2 3 5 3 2 3 3 3 5 4 2 1 1 2 3 4 5 5 5 5 7 7 7 7 7 6 7 7 7 7 7 6 5 5 5 4 4 4 2
4 4 7 4 1 2 4 3 2 2 2 2 2 1 1 2 2 1 1 2 3 4 4 4 5 6 6 6 6 5 5 6 7 6 6 5 6 5 5 6 5 4 3 2
6 6 4 2 3 3 2 2 1 1 2 2 1 2 2 2 2 2 2 2 3 4 4 3 5 6 6 5 4 5 5 5 6 6 5 5 6 6 5 5 4 4 4 3
2 4 4 3 2 2 1 1 2 2 2 2 2 3 3 3 3 2 2 2 2 4 4 4 4 5 5 4 5 5 5 4 4 5 4 4 4 5 5 6 5 5 5 4
3 4 4 4 2 3 3 2 2 1 1 3 3 3 3 3 3 3 2 2 2 4 5 5 4 4 3 4 5 5 5 4 4 4 5 4 4 4 6 6 8 8 6 6
6 5 4 7 6 3 2 3 3 2 3 3 3 3 3 3 3 3 3 2 2 3 5 5 5 4 4 4 6 6 4 4 4 4 3 3 4 2 3 4 7 9 9 8
6 6 5 6 5 3 3 4 4 3 3 3 3 3 3 2 2 2 3 3 3 4 5 5 5 4 5 5 5 6 5 4 4 4 4 4 4 4 3 1 3 6 8 9
4 2 4 5 5 4 3 3 3 3 3 3 2 2 2 2 2 2 3 4 3 3 4 4 5 5 5 5 5 5 5 5 5 4 4 4 5 4 5 5 3 2 4 7
5 3 5 5 5 4 2 1 2 3 2 2 1 2 3 3 3 3 3 3 3 3 3 4 4 4 4 5 5 5 4 4 4 4 4 4 4 4 4 4 4 3 2 2
5 4 3 3 4 4 2 2 3 4 3 2 2 3 3 3 2 2 3 4 4 4 4 4 5 4 5 5 5 4 4 5 4 4 4 3 3 4 4 4 4 4 4 4
4 6 5 5 5 4 4 4 4 4 3 3 3 3 2 1 1 1 2 3 4 4 4 4 4 4 4 5 5 4 3 4 5 3 4 4 4 4 4 4 4 4 4 4
5 6 6 6 5 5 5 5 4 4 4 4 3 2 2 3 3 3 2 2 1 1 1 2 3 3 3 3 3 3 3 3 4 4 3 4 4 3 3 4 4 4 2 3
4 4 5 5 5 5 5 5 4 4 3 3 3 4 4 4 3 3 2 2 3 2 3 2 3 3 3 3 3 3 3 3 3 2 2 3 3 3 3 3 3 3 3 3
3 3 3 4 4 4 4 4 3 3 3 3 3 3 3 4 3 3 3 3 4 4 3 3 3 3 3 3 3 3 3 4 3 3 2 2 3 3 3 3 3 3 3 3
3 3 3 3 4 4 3 3 3 3 3 4 4 5 4 3 3 4 3 2 3 2 3 4 3 3 3 3 4 3 3 3 3 3 3 3 3 3 3 3 3 3 3 3
3 3 3 3 3 4 3 2 2 3 2 3 3 3 3 2 2 2 3 3 3 3 3 2 2 3 4 4 3 3 3 3 3 3 3 3 3 3 3 3 3 3 3 3
3 3 3 3 3 3 3 2 2 2 3 3 3 4 4 3 3 3 3 2 2 3 3 3 3 5 5 3 3 3 4 4 3 3 3 3 3 4 3 3 3 3 3 3
3 3 3 2 1 1 2 2 2 2 2 2 3 3 3 2 1 2 2 3 3 3 3 4 6 6 5 3 3 3 4 4 4 3 3 3 3 3 3 3 3 3 3 3
3 2 2 1 1 2 2 2 1 0 1 1 1 2 2 2 3 2 2 3 4 4 3 4 6 6 4 3 4 4 4 4 4 4 4 4 4 3 3 3 3 3 3 3
3 2 2 1 1 2 1 1 1 1 1 1 1 1 1 1 2 2 2 2 3 3 3 3 3 4 3 3 4 4 4 4 4 4 4 4 4 4 3 3 4 3 3 3
3 2 2 2 2 1 1 1 1 1 1 2 2 2 1 1 1 1 2 2 2 2 2 2 2 3 3 3 3 3 3 3 3 3 4 4 3 3 4 4 3 3 3 3
Wind_Direction
236 250 240 247 244 222 205 197 201 225 222 235 232 219 210 192 172 164 168 171 176 179 181 182 183 187 185 182 176 169 164 167 174 171 164 155 146 150 150 148 148 146 133 129
290 281 279 269 258 234 222 211 211 216 245 236 216 193 192 189 172 166 176 182 182 181 181 185 187 189 187 181 177 166 170 176 171 162 160 157 157 154 147 147 141 132 138 143
273 298 331 270 246 224 218 214 194 213 234 209 189 192 194 189 182 178 185 186 184 186 189 192 191 188 185 183 170 165 171 172 168 164 163 166 163 153 155 161 152 147 158 151
225 3 241 246 258 210 200 224 215 205 207 189 197 210 196 176 177 188 189 191 191 190 191 192 187 182 177 168 163 168 173 174 171 166 165 162 159 162 167 163 158 160 164 160
165 219 270 287 284 215 189 245 264 192 198 196 171 55 307 220 183 187 186 185 192 190 186 180 178 176 165 169 171 174 180 182 180 175 169 167 169 175 173 158 158 163 169 167
169 199 234 249 279 257 139 237 284 173 178 177 97 138 250 277 246 193 175 168 173 172 166 170 181 169 163 173 175 185 190 187 182 178 175 177 180 178 174 165 170 163 168 176
194 221 254 262 285 60 150 240 271 188 184 175 189 210 229 235 231 179 172 170 165 158 162 180 178 166 170 177 191 195 186 179 178 182 182 181 176 170 164 163 159 160 165 179
175 207 247 292 55 155 227 249 221 194 206 209 239 260 207 192 192 166 141 160 156 155 170 176 167 163 169 188 194 176 169 175 179 181 183 177 168 169 164 158 157 164 161 176
195 214 243 249 189 223 204 213 235 209 225 190 208 225 201 199 198 194 182 172 166 160 165 170 169 167 175 191 170 158 160 176 181 178 179 171 169 169 167 166 167 178 173 186
240 262 273 281 296 328 338 246 243 215 212 198 218 207 201 198 198 202 203 180 170 157 161 179 182 178 179 172 159 155 162 172 173 171 173 169 174 174 175 179 179 185 188 195
255 275 307 310 312 310 326 324 292 299 261 224 212 213 205 207 211 213 215 198 173 171 176 184 181 179 167 159 155 156 164 166 173 176 176 173 179 189 191 197 191 190 197 192
234 240 236 267 275 277 276 283 274 289 300 280 224 210 217 217 216 207 203 194 187 179 178 180 175 174 170 164 162 161 168 173 174 174 177 176 174 187 212 203 202 201 198 191
232 250 251 263 269 259 249 265 270 254 245 267 257 220 208 213 209 194 192 190 198 193 182 176 175 179 180 174 170 171 177 180 176 174 177 180 183 183 190 234 203 201 200 198
243 248 279 279 276 270 260 275 288 282 273 254 232 219 201 199 196 198 206 203 199 187 179 175 178 188 185 176 172 174 175 183 181 182 182 187 191 190 186 186 189 210 211 203
269 250 248 268 277 274 268 282 301 287 286 281 240 209 195 197 209 227 220 190 171 171 180 177 179 192 181 174 173 176 176 181 182 181 183 188 187 183 184 188 189 190 181 192
277 284 270 266 270 270 265 247 245 256 253 244 233 228 221 210 220 231 207 178 168 182 188 183 187 190 177 172 171 179 189 192 181 175 175 180 183 182 185 185 187 192 199 201
267 274 269 269 266 266 258 248 236 233 233 233 225 214 206 198 219 226 211 194 186 190 185 180 188 187 179 174 174 182 183 185 181 176 181 184 187 189 190 187 192 200 209 201
240 247 249 242 241 253 264 263 250 236 232 234 221 198 196 195 205 219 218 196 165 167 205 196 179 172 177 181 181 177 177 183 185 189 189 187 188 186 183 187 192 194 197 185
264 264 263 259 253 247 248 251 248 238 236 221 202 203 207 211 209 212 191 167 174 207 236 210 175 161 170 184 175 168 167 171 177 180 179 177 176 173 176 184 189 187 181 175
277 274 274 276 275 261 255 252 243 238 230 213 201 194 198 209 208 196 180 194 214 219 210 189 172 169 175 176 161 161 164 167 169 169 162 166 173 179 181 183 183 181 180 179
282 284 282 281 285 281 261 241 222 222 223 199 191 195 200 208 202 184 175 212 250 225 190 182 178 180 178 173 161 161 165 168 169 171 171 175 177 179 183 183 183 183 184 182
279 284 288 286 286 286 276 247 215 208 211 204 200 192 184 193 198 191 202 214 217 193 186 191 189 180 174 168 167 163 166 168 172 170 171 173 176 180 185 183 183 181 177 174
283 281 286 279 268 276 292 275 221 196 196 198 194 191 187 194 194 184 225 238 203 192 190 197 189 177 173 169 169 168 169 172 176 178 179 181 182 183 184 183 183 179 176 175
293 292 289 283 288 309 295 284 255 219 203 205 201 193 180 179 242 242 218 203 198 197 203 196 183 178 175 179 176 177 181 184 184 183 180 177 176 178 177 176 179 184 184 183
300 302 307 327 317 279 265 263 270 244 174 191 210 214 203 194 204 222 212 202 200 194 200 197 189 187 188 185 183 184 185 185 178 172 176 177 179 182 184 184 184 185 187 193
312 302 288 272 257 254 250 228 223 232 186 174 234 241 223 198 185 194 200 201 197 191 192 193 192 188 187 183 183 183 181 181 183 183 182 181 182 182 184 186 188 192 194 194
332 330 332 341 336 303 271 227 210 229 211 192 211 227 208 184 175 186 189 185 182 182 186 190 189 186 181 178 178 179 178 178 179 180 182 183 184 187 188 188 189 185 181 184